Simultaneous Nadir Overpasses (SNOs) Predictions

Prediction of SNOs between AQUA and METOP-B Satellite Orbit:

Table of predicted SNOs for the next 14.0 days since TLE Epoch: 9/24/2016
Index Date (AQUA) Time (AQUA) Lat,Lon (AQUA) SZA (AQUA ) Date (METOP-B) Time (METOP-B) Lat,Lon (METOP-B) SZA (METOP-B ) Distance(km) Time Diff (sec)
1 09/24/2016 14:59:20 73.45, -49.91 74.17 09/24/2016 14:58:09 73.36, -51.03 74.11 36.94 71
2 09/24/2016 15:48:50 -73.74, 117.10 105.51 09/24/2016 15:48:42 -73.75, 117.20 105.51 2.98 8
3 09/24/2016 16:38:19 73.81, -75.41 74.57 09/24/2016 16:39:21 73.79, -75.38 74.55 2.39 62
4 09/27/2016 10:33:39 73.63, 16.12 75.46 09/27/2016 10:32:26 73.65, 16.05 75.49 3.21 73
5 09/27/2016 11:23:06 -73.72,-176.41 104.45 09/27/2016 11:23:06 -73.75,-176.41 104.42 3.37 0
6 09/27/2016 12:12:35 73.79, -8.93 75.64 09/27/2016 12:13:45 73.79, -8.98 75.64 1.69 70
7 09/30/2016 06:07:56 73.67, 82.47 76.59 09/30/2016 06:06:50 73.65, 82.45 76.57 2.92 66
8 09/30/2016 06:57:23 -73.75,-110.06 103.32 09/30/2016 06:57:30 -73.74,-110.01 103.33 2.14 7
9 09/30/2016 07:46:54 73.93, 57.19 76.88 09/30/2016 07:48:06 73.93, 57.77 76.87 18.02 72
10 10/03/2016 01:42:12 73.68, 148.90 77.68 10/03/2016 01:41:13 73.69, 148.95 77.70 2.42 59
11 10/03/2016 02:31:39 -73.75, -43.62 102.23 10/03/2016 02:31:54 -73.73, -43.62 102.25 2.24 15
12 10/03/2016 03:21:16 74.24, 122.91 78.29 10/03/2016 03:22:24 74.22, 124.89 78.24 60.11 68
13 10/05/2016 21:16:27 73.69,-144.69 78.77 10/05/2016 21:15:36 73.68,-144.66 78.77 1.15 51
14 10/05/2016 22:05:54 -73.76, 22.79 101.14 10/05/2016 22:06:16 -73.77, 22.88 101.13 3.03 22




NCC Satellite Simultaneous Nadir Overpasses (SNOs) Prediction Service
